Location: Dehesa de la Cepeda
(40.6574°N, 4.3013°W)
Time: 12:59:14
(UTC+00:00)

Transit 2A Rocket - Pass Details

Date: 10 August 2021
Orbit: 586 x 917 km, 66.7° (Epoch: 27 September)

Event Time Altitude Azimuth Distance (km) Brightness Sun altitude
Rises 21:12:43 0° 328° (NNW) 3,341 9.7 -18.8°
Reaches altitude 10° 21:15:06 10° 326° (NW) 2,451 8.8 -19.2°
Maximum altitude 21:20:47 71° 244° (WSW) 930 5.4 -20.0°
Enters shadow 21:23:41 32° 168° (SSE) 1,499 6.0 -20.4°
